Miscellaneous Local Product
Issued by NWS North Platte, NE

Home | Current Version | Previous Version | Text Only | Print | Product List | Glossary On
Versions: 1 2 3 4 5 6 7 8 9 10 11 12 13 14 15 16 17 18 19 20 21 22 23 24 25 26 27 28 29 30 31 32 33 34 35 36 37 38 39 40 41 42 43 44 45 46 47 48 49 50
000
AXUS43 KLBF 040910
MISLBF


WESTERN AND NORTH CENTRAL NEBRASKA HOURLY WEATHER ROUNDUP
NATIONAL WEATHER SERVICE NORTH PLATTE NE
300 AM CST SUN DEC 04 2016

NOTE: "FAIR" INDICATES FEW OR NO CLOUDS BELOW 12,000 FEET WITH NO
SIGNIFICANT WEATHER AND/OR OBSTRUCTIONS TO VISIBILITY.

NOTE: STATIONS NOT REPORTING VARIABLES SUCH AS SKY/WEATHER OR
PRESSURE ARE PROVIDED BY RAWS AND APRS NETWORKS AND ARE NOT UNDER
NATIONAL WEATHER SERVICE QUALITY CONTROL.

...OBSERVATIONS IN AND NEAR THE EASTERN PANHANDLE OF NEBRASKA...

CITY           SKY/WX    TMP DP  RH WIND       PRES   REMARKS
PINE RIDGE     MOCLDY    29  20  69 W6        29.95S WCI  23
CHADRON        CLOUDY    25  16  68 W10       29.98R WCI  15
ALLIANCE       CLOUDY    22  15  75 W10       29.97S WCI  11
SIDNEY         CLEAR     26  14  60 NW16      30.01S WCI  14
CRESCENT LAKE    N/A     29  17  60 W10         N/A  WCI  20
$$

...OBSERVATIONS IN NORTHERN NEBRASKA AND FAR SOUTHERN SOUTH DAKOTA...

CITY           SKY/WX    TMP DP  RH WIND       PRES   REMARKS
WINNER         FAIR      31  23  72 W9        29.91S WCI  23
VALENTINE      CLEAR     22  18  85 SW6       29.93S WCI  14
THEDFORD       PTCLDY    24  20  85 W6        29.96S WCI  17
AINSWORTH      CLEAR     28  22  78 W7        29.93R WCI  21
O`NEILL        PTCLDY    31  29  92 W9        29.94S WCI  22
ORD            FOG       23  20  88 CALM      29.96S VSB 1/4
BROKEN BOW     MOCLDY    30  26  85 NW3       29.96S
VALENTINE NWR    N/A     29  20  68 W6          N/A  WCI  23
BUTTE            N/A     28  23  81 SW6         N/A  WCI  22
HALSEY           N/A     27  19  71 W6          N/A  WCI  21
CHAMBERS         N/A     29  27  92 SW3         N/A
EWING            N/A     27  26  94 SW3         N/A
$$

...OBSERVATIONS IN SOUTHWEST NEBRASKA AND FAR NORTHEAST COLORADO...

CITY           SKY/WX    TMP DP  RH WIND       PRES   REMARKS
HOLYOKE        FAIR      27  16  63 W10       30.03S WCI  17
IMPERIAL       CLEAR     27  15  61 W13       30.01F WCI  16
OGALLALA       CLEAR     21  15  78 W3        30.01S
NORTH PLATTE   PTCLDY    22  18  85 NW7       29.99S WCI  13
MCCOOK         PTCLDY    23  19  85 W10       30.02R WCI  12
LEXINGTON      FOG       27  26  95 W6        29.99S VSB 1   WCI  21
STAPLETON        N/A     24  20  84 CALM        N/A
GOTHENBURG       N/A     27  25  90 W3          N/A
CALLAWAY         N/A     28  25  87 NW9         N/A  WCI  19
$$

...OBSERVATIONS IN CENTRAL LINCOLN COUNTY AREA...

CITY           SKY/WX    TMP DP  RH WIND       PRES   REMARKS
N.P. AIRPORT   PTCLDY    22  18  85 NW7       29.99S WCI  13
N.P. DOWNTOWN    N/A     28  21  74 CALM        N/A
N.P. SOUTHEAST   N/A     30  21  68 CALM        N/A
N.P. HILLCREST   N/A     28  21  75 NW5         N/A  WCI  23
$$

...SOME OBSERVATIONS FROM AROUND THE REGION...

CITY           SKY/WX    TMP DP  RH WIND       PRES   REMARKS
CHEYENNE       CLEAR     23   9  55 N5        30.00R WCI  17
DENVER         CLEAR     22   8  55 SW10      30.02F WCI  11
AKRON          CLEAR     21  11  65 W12       30.02F WCI   9
SCOTTSBLUFF    CLEAR     22  14  71 NW10      30.01S WCI  11
RAPID CITY     CLEAR     32  23  69 W13       29.91R WCI  22
BISMARCK       MOCLDY    34  30  85 W13       29.76F WCI  25
PIERRE         CLEAR     26  21  81 CALM      29.86S
SIOUX FALLS    CLOUDY    35  33  92 S13       29.94F WCI  26
OMAHA          CLOUDY    35  31  85 S7        30.03S WCI  29
GRAND ISLAND   CLOUDY    32  32 100 W8        30.00S WCI  25
KANSAS CITY    LGT RAIN  40  37  89 SE6       30.04F FOG
WICHITA        LGT RAIN  41  41 100 N6        30.03S
OKLAHOMA CITY  LGT RAIN  44  43  96 NW3       30.03R FOG
DALLAS         CLOUDY    48  45  89 CALM      29.99S
AMARILLO       CLOUDY    38  37  97 NW12      30.06R WCI  30
DODGE CITY     FOG       34  34 100 NW10      30.04S VSB 1/2 WCI  26
HAYS           MIX PCPN  30  28  93 SW6       30.04S VSB 3/4 WCI  24
GOODLAND       CLEAR     19  12  74 W8        30.03R WCI   9
$$




USA.gov is the U.S. government's official web portal to all federal, state and local government web resources and services.